map of SFA home
SFA - Airport
Location
City:  Sfax, Tunisia
Name:Thyna International Airport
ICAO:DTTX
IATA:SFA

Details
Type:Airport (Aerodrome, Airfield)
Use:Public/Civil, International (customs port of entry)
Latitude:3443'14"N (34.720556)
Longitude:1041'19"E (10.688611)
Elevation:85 ft (26 m)
Variation:2.58E (WMM2015v2 magnetic declination)
0.12 annual change
Runways:1
Longest:8858 × 148 ft (2700 × 45 m), paved

Time
Time Zone:UTC+1 (DST+2)

Weather
METAR:DTTX 041400Z 31017G27KT 9999 FEW020 SCT030 13/03 Q1010
TAF:DTTX 041100Z 0412/0512 32020KT 9999 SCT020 SCT030 PROB40
TEMPO 0412/0424 -TSRA FEW026CB
BECMG 0504/0506 35030G45KT

Related Locations
Nearby:
Farthest:CHT: 11699 mi / 18828 km
Waitangi [Tuuta], CIT, NZ

Find:

   beyond  
but within

Other Information
Maps:
NOTAMs:
Links:
Sources:

  
  • flag of Tunisia
  

Sectional Chart

Flight Planning
at skyvector.com

Satellite Image

Google Maps Satellite view

 

Copyright © 2004-2019 Karl L. Swartz. All rights reserved.
The Great Circle Mapper name and logo are trademarks of the Great Circle Mapper.
All other trademarks mentioned herein belong to their respective owners.
Please see credits for attibutions and further copyright information.

  Follow gcmap on Facebook Follow gcmap on Twitter GCmap on LinkedIn

hCard Microformat

Geo Microformat